When you browse on this site, cookies collect data to enhance your experience and personalize the content and advertising you see.
Visit our Privacy Policy to learn more. By continuing to use the site, you agree to this use of cookies and data.
  • In Hungary
  • List of Countries
  • For 7 days
  • Water Temperature
  • Satellite Maps
  • Weather Map
  • News
  • Weather Widgets
  • user-avatar
    Login

    Hourly Weather Huaxian

    Today, 10 December, Monday

    Time Temperature Precipitation Wind Pressure Humidity
    00:00 -2°C° 0 mm 1 mps 769 mmHg 20%
    01:00 -4°C° 0 mm 0 mps 769 mmHg 21%
    02:00 -4°C° 0 mm 0 mps 769 mmHg 20%
    03:00 -4°C° 0 mm 0 mps 769 mmHg 21%
    04:00 -4°C° 0 mm 0 mps 769 mmHg 21%
    05:00 -4°C° 0 mm 0 mps 769 mmHg 22%
    06:00 -3°C° 0 mm 1 mps 769 mmHg 22%
    07:00 -3°C° 0 mm 1 mps 769 mmHg 21%
    08:00 -5°C° 0 mm 2 mps 770 mmHg 19%
    09:00 -3°C° 0 mm 2 mps 770 mmHg 18%
    10:00 -2°C° 0 mm 2 mps 770 mmHg 17%
    11:00 +1°C° 0 mm 2 mps 770 mmHg 16%
    12:00 +1°C° 0 mm 2 mps 769 mmHg 16%
    13:00 +2°C° 0 mm 2 mps 769 mmHg 17%
    14:00 +3°C° 0 mm 1 mps 769 mmHg 16%
    15:00 +1°C° 0 mm 2 mps 769 mmHg 17%
    16:00 +1°C° 0 mm 2 mps 768 mmHg 19%
    17:00 -1°C° 0 mm 2 mps 768 mmHg 20%
    18:00 -1°C° 0 mm 2 mps 769 mmHg 20%
    19:00 -1°C° 0 mm 2 mps 769 mmHg 20%
    20:00 -1°C° 0 mm 2 mps 769 mmHg 20%
    21:00 -2°C° 0 mm 2 mps 769 mmHg 20%
    22:00 0°C° 0 mm 1 mps 769 mmHg 20%
    23:00 0°C° 0 mm 1 mps 770 mmHg 20%

    Tomorrow, 11 December, Tuesday

    Time Temperature Precipitation Wind Pressure Humidity
    00:00 -1°C° 0 mm 1 mps 769 mmHg 20%
    01:00 -1°C° 0 mm 1 mps 769 mmHg 20%
    02:00 -2°C° 0 mm 1 mps 769 mmHg 21%
    03:00 -4°C° 0 mm 2 mps 769 mmHg 20%
    04:00 -5°C° 0 mm 2 mps 769 mmHg 20%
    05:00 -5°C° 0 mm 2 mps 769 mmHg 20%
    06:00 -5°C° 0 mm 2 mps 770 mmHg 19%
    07:00 -5°C° 0 mm 2 mps 770 mmHg 18%
    08:00 -6°C° 0 mm 3 mps 770 mmHg 18%
    09:00 -4°C° 0 mm 3 mps 771 mmHg 17%
    10:00 -1°C° 0 mm 3 mps 771 mmHg 16%
    11:00 0°C° 0 mm 4 mps 772 mmHg 15%
    12:00 0°C° 0 mm 4 mps 771 mmHg 15%
    13:00 +1°C° 0 mm 4 mps 771 mmHg 14%
    14:00 +2°C° 0 mm 5 mps 770 mmHg 14%
    15:00 +1°C° 0 mm 4 mps 770 mmHg 16%
    16:00 +1°C° 0 mm 3 mps 770 mmHg 18%
    17:00 -1°C° 0 mm 2 mps 771 mmHg 19%
    18:00 -1°C° 0 mm 2 mps 771 mmHg 20%
    19:00 -2°C° 0 mm 2 mps 771 mmHg 21%
    20:00 -1°C° 0 mm 1 mps 772 mmHg 22%
    21:00 -2°C° 0 mm 1 mps 772 mmHg 23%
    22:00 -2°C° 0 mm 1 mps 772 mmHg 23%
    23:00 -2°C° 0 mm 1 mps 772 mmHg 23%

    Day after tomorrow, 12 December, Wednesday

    Time Temperature Precipitation Wind Pressure Humidity
    00:00 -2°C° 0 mm 1 mps 772 mmHg 23%
    01:00 -3°C° 0 mm 1 mps 772 mmHg 23%
    02:00 -4°C° 0 mm 0 mps 772 mmHg 23%
    03:00 -3°C° 0 mm 1 mps 772 mmHg 23%
    04:00 -3°C° 0 mm 1 mps 772 mmHg 24%
    05:00 -4°C° 0 mm 1 mps 771 mmHg 24%
    06:00 -4°C° 0 mm 1 mps 771 mmHg 24%
    07:00 -3°C° 0 mm 1 mps 771 mmHg 24%
    08:00 -3°C° 0 mm 1 mps 771 mmHg 24%
    09:00 -3°C° 0 mm 2 mps 771 mmHg 21%
    10:00 -1°C° 0 mm 3 mps 771 mmHg 18%
    11:00 +1°C° 0 mm 3 mps 771 mmHg 15%
    12:00 +1°C° 0 mm 4 mps 770 mmHg 15%
    13:00 +3°C° 0 mm 4 mps 769 mmHg 16%
    14:00 +4°C° 0 mm 4 mps 768 mmHg 16%
    15:00 +3°C° 0 mm 4 mps 768 mmHg 18%
    16:00 +2°C° 0 mm 3 mps 768 mmHg 21%
    17:00 +1°C° 0 mm 3 mps 767 mmHg 23%
    18:00 0°C° 0 mm 3 mps 767 mmHg 25%
    19:00 -1°C° 0 mm 3 mps 768 mmHg 27%
    20:00 -2°C° 0 mm 3 mps 768 mmHg 28%
    21:00 -2°C° 0 mm 2 mps 768 mmHg 30%
    22:00 -2°C° 0 mm 2 mps 768 mmHg 31%
    23:00 -2°C° 0 mm 2 mps 768 mmHg 33%

    13 December, Thursday

    Time Temperature Precipitation Wind Pressure Humidity
    00:00 -3°C° 0 mm 2 mps 768 mmHg 33%
    01:00 -3°C° 0 mm 2 mps 768 mmHg 34%
    02:00 -1°C° 0 mm 1 mps 768 mmHg 34%
    03:00 -1°C° 0 mm 1 mps 768 mmHg 35%
    04:00 -1°C° 0 mm 1 mps 768 mmHg 35%
    05:00 -2°C° 0 mm 1 mps 768 mmHg 35%
    06:00 -2°C° 0 mm 1 mps 768 mmHg 34%
    07:00 -2°C° 0 mm 1 mps 769 mmHg 33%
    08:00 -2°C° 0 mm 1 mps 770 mmHg 32%
    09:00 -2°C° 0 mm 2 mps 770 mmHg 29%
    10:00 +1°C° 0 mm 2 mps 770 mmHg 25%
    11:00 +3°C° 0 mm 2 mps 771 mmHg 21%
    12:00 +4°C° 0 mm 2 mps 770 mmHg 20%
    13:00 +5°C° 0 mm 2 mps 770 mmHg 19%
    14:00 +6°C° 0 mm 2 mps 769 mmHg 19%
    15:00 +5°C° 0 mm 2 mps 769 mmHg 21%
    16:00 +4°C° 0 mm 2 mps 769 mmHg 23%
    17:00 +3°C° 0 mm 2 mps 769 mmHg 25%
    18:00 +2°C° 0 mm 2 mps 770 mmHg 26%
    19:00 +1°C° 0 mm 2 mps 770 mmHg 28%
    20:00 -1°C° 0 mm 2 mps 771 mmHg 29%
    21:00 +1°C° 0 mm 1 mps 771 mmHg 29%
    22:00 +1°C° 0 mm 1 mps 771 mmHg 30%
    23:00 0°C° 0 mm 1 mps 772 mmHg 30%

    14 December, Friday

    Time Temperature Precipitation Wind Pressure Humidity
    00:00 0°C° 0 mm 1 mps 772 mmHg 31%
    01:00 0°C° 0 mm 1 mps 771 mmHg 31%
    02:00 -1°C° 0 mm 1 mps 771 mmHg 32%
    03:00 -1°C° 0 mm 1 mps 771 mmHg 32%
    04:00 -1°C° 0 mm 1 mps 771 mmHg 33%
    05:00 -2°C° 0 mm 0 mps 771 mmHg 34%
    06:00 -1°C° 0 mm 1 mps 771 mmHg 34%
    07:00 -1°C° 0 mm 1 mps 771 mmHg 34%
    08:00 -1°C° 0 mm 1 mps 771 mmHg 34%
    09:00 +1°C° 0 mm 1 mps 771 mmHg 31%
    10:00 +2°C° 0 mm 2 mps 771 mmHg 29%
    11:00 +4°C° 0 mm 2 mps 771 mmHg 26%
    12:00 +4°C° 0 mm 3 mps 770 mmHg 25%
    13:00 +5°C° 0 mm 3 mps 769 mmHg 24%
    14:00 +7°C° 0 mm 3 mps 768 mmHg 23%
    15:00 +5°C° 0 mm 3 mps 768 mmHg 25%
    16:00 +5°C° 0 mm 2 mps 768 mmHg 27%
    17:00 +4°C° 0 mm 2 mps 767 mmHg 30%
    18:00 +4°C° 0 mm 2 mps 768 mmHg 32%
    19:00 +3°C° 0 mm 2 mps 768 mmHg 34%
    20:00 +2°C° 0 mm 2 mps 768 mmHg 36%
    21:00 +2°C° 0 mm 2 mps 768 mmHg 38%
    22:00 +2°C° 0 mm 2 mps 768 mmHg 40%
    23:00 +1°C° 0 mm 2 mps 768 mmHg 42%

    15 December, Saturday

    Time Temperature Precipitation Wind Pressure Humidity
    00:00 +1°C° 0 mm 2 mps 767 mmHg 44%
    01:00 0°C° 0 mm 3 mps 767 mmHg 47%
    02:00 0°C° 0 mm 3 mps 767 mmHg 49%
    03:00 0°C° 0 mm 3 mps 766 mmHg 51%
    04:00 -1°C° 0 mm 3 mps 766 mmHg 53%
    05:00 -1°C° 0 mm 3 mps 765 mmHg 55%
    06:00 -1°C° 0 mm 2 mps 765 mmHg 54%
    07:00 -1°C° 0 mm 2 mps 765 mmHg 54%
    08:00 -1°C° 0 mm 2 mps 766 mmHg 53%
    09:00 +2°C° 0 mm 3 mps 766 mmHg 46%
    10:00 +4°C° 0 mm 3 mps 765 mmHg 39%
    11:00 +7°C° 0 mm 3 mps 765 mmHg 32%
    12:00 +8°C° 0 mm 3 mps 765 mmHg 30%
    13:00 +10°C° 0 mm 3 mps 764 mmHg 28%
    14:00 +12°C° 0 mm 2 mps 763 mmHg 25%
    15:00 +10°C° 0 mm 2 mps 763 mmHg 28%
    16:00 +10°C° 0 mm 1 mps 763 mmHg 31%
    17:00 +9°C° 0 mm 1 mps 763 mmHg 33%
    18:00 +8°C° 0 mm 1 mps 764 mmHg 34%
    19:00 +7°C° 0 mm 1 mps 764 mmHg 36%
    20:00 +7°C° 0 mm 1 mps 764 mmHg 37%
    21:00 +6°C° 0 mm 1 mps 764 mmHg 37%
    22:00 +6°C° 0 mm 1 mps 765 mmHg 37%
    23:00 +6°C° 0 mm 1 mps 765 mmHg 37%
    Show more